Location: Arclight Observatory
(36.5667°N, 87.3333°W)
Time: 13:56:50
(UTC-05:00)

Daily predictions for brighter satellites

Satellite Brightness Start Highest point End
(mag) Time Altitude Azimuth Time Altitude Azimuth Time Altitude Azimuth
Cosmos 1624 Rocket 4.1 18:52:53 10° N 18:58:02 59° ENE 19:03:08 10° SSE
USA 215 3.5 18:52:27 10° NE 18:58:46 50° SE 19:05:02 10° SSW
Cosmos 1484 Rocket 2.7 18:56:27 10° SSE 19:00:14 71° ENE 19:04:06 10° N
Cosmos 921 Rocket 4.2 18:57:20 10° NNW 19:01:22 46° W 19:05:21 10° S
SL-19 R/B 4.4 18:56:16 10° SSE 19:01:45 61° ENE 19:07:32 10° N
ASTRO E2 3.6 19:00:11 10° WSW 19:03:57 39° S 19:07:44 10° ESE
CZ-4C R/B 3.7 19:01:15 10° WSW 19:06:09 37° NW 19:11:36 10° NNE
ALOS 3.9 19:05:32 10° E 19:08:13 15° ENE 19:10:54 10° NNE
Cosmos 2237 Rocket 3.7 19:03:29 10° SW 19:08:49 41° WNW 19:14:11 10° N
TIMED 4.5 19:05:58 10° NNW 19:10:21 72° ENE 19:14:42 10° SSE
Cosmos 1464 Rocket 4.1 19:05:10 10° SSE 19:11:12 53° E 19:17:12 10° NNE
BREEZE-M TANK 3.4 18:59:20 10° WNW 19:11:25 87° SW 19:14:54 10° ESE
ATLAS 5 CENTAUR R/B 1.9 19:07:56 10° SSW 19:12:32 56° ESE 19:17:27 10° NE
CZ-2C R/B 4.3 19:08:07 10° SSW 19:12:41 36° W 19:17:09 10° NNW
Helios 1B rocket 3.2 19:09:57 10° NE 19:13:35 30° E 19:17:12 10° SSE
Meteor 1-29 4.2 19:11:19 10° NE 19:14:04 21° E 19:16:47 10° SSE
Atlas Centaur 2 3.8 19:06:56 10° W 19:15:01 47° SSW 19:22:41 10° SE
Cosmos 1076 Rocket 4.0 19:12:30 10° N 19:16:34 39° E 19:20:39 10° SSE
SeaSat 1 4.1 19:16:36 10° ENE 19:18:59 13° ESE 19:21:22 10° SE
Cosmos 1766 3.2 19:16:14 10° S 19:20:10 83° E 19:24:10 10° N
Cosmos-2242 3.8 19:16:27 10° SSE 19:20:16 31° E 19:24:08 10° NNE
BREEZE-M DEB (TANK) 4.2 19:20:52 10° WNW 19:24:31 71° SW 19:37:00 10° SE
Cosmos 1452 Rocket 3.9 19:22:27 10° N 19:27:25 41° ENE 19:32:22 10° SE
SEDSat Delta rocket 4.4 19:22:06 10° WSW 19:28:33 56° S 19:34:02 15° ESE
SL-16 R/B 2.7 19:23:12 10° SSW 19:28:50 66° WNW 19:34:30 10° NNE
NOSS 3-2 (A) 3.8 19:23:08 10° SW 19:29:07 70° NW 19:35:38 10° NNE
FREGAT/IRIS 2.6 19:26:59 10° SSE 19:30:03 66° ENE 19:33:07 10° N
ATLAS CENTAUR R/B 2.6 19:30:14 10° NW 19:34:07 41° WSW 19:37:41 10° S
SL-8 R/B 3.8 19:33:48 10° SW 19:38:27 54° SE 19:42:04 16° ENE
Cosmos 1408 Rocket 3.5 19:34:45 10° N 19:39:05 63° E 19:43:21 10° SSE
Cosmos 1544 3.6 19:37:14 10° SSE 19:40:41 37° E 19:44:10 10° NNE
METEOR-M 4.1 19:35:47 10° SSE 19:41:05 72° ENE 19:46:27 10° N
Gbstr 26 Del rocket 4.1 19:40:25 10° S 19:44:08 28° SE 19:45:51 23° E
Cosmos 1953 2.2 19:41:47 10° S 19:45:44 73° E 19:49:43 10° N
Cosmos 1378 3.9 19:42:51 10° NNW 19:46:31 53° W 19:50:08 10° S
Cosmos 1805 3.1 19:46:36 10° S 19:50:30 83° E 19:54:27 10° N
H-2A R/B 3.7 19:50:10 27° E 19:50:32 28° ENE 19:53:54 10° NNE
FENGYUN 3A 3.9 19:47:47 12° SE 19:52:26 45° ENE 19:57:32 10° N
Resurs 1-3 3.5 19:49:40 10° SSE 19:54:01 65° ENE 19:58:22 10° N
Resurs 01 Rocket 1.6 19:50:25 10° SSE 19:54:52 87° E 19:59:21 10° NNW
Abrixas 2.3 19:56:32 10° SW 19:59:32 86° SE 20:00:02 58° ENE
ASTEX 1 3.5 19:54:52 10° NNE 19:59:36 47° E 20:04:18 10° SSE
Cosmos 1346 3.7 19:59:12 10° N 20:01:22 38° NNE 20:01:22 38° NNE
CENTAUR R/B 2.7 19:57:57 10° S 20:03:28 42° ESE 20:09:33 10° NE
Spot 2 Rocket 3.6 19:58:29 10° S 20:03:31 77° WSW 20:08:34 10° NNW
Cosmos 1269 Rocket 3.9 19:59:02 10° S 20:04:17 71° ESE 20:09:33 10° NNE
Helios 1A 3.1 20:01:32 10° S 20:05:43 78° WSW 20:09:57 10° NNW
Cosmos 1048 Rocket 4.0 20:00:57 10° S 20:06:11 62° ESE 20:11:22 10° NNE
Cosmos 1743 Rocket 3.5 20:03:05 10° N 20:07:30 61° E 20:09:33 29° SSE
NOSS 3-2 (C) 4.4 20:01:45 10° SW 20:07:35 48° NW 20:13:55 10° NNE
Cosmos 1943 3.4 20:06:49 10° S 20:12:06 43° ESE 20:17:23 10° NE
Cosmos 1470 3.2 20:13:51 44° NE 20:13:51 44° NE 20:16:48 10° NNE
Cosmos 2369 Rocket 3.1 20:09:11 10° N 20:14:06 30° ENE 20:14:17 30° ENE
Cosmos 1603 3.9 20:10:28 10° SSW 20:16:10 72° WNW 20:21:56 10° NNE
Cosmos 1943 Rocket 4.1 20:14:40 10° NNE 20:16:40 14° NE 20:16:40 14° NE
GPS 2-04 Rocket1 3.1 20:16:50 10° WSW 20:19:40 43° SSW 20:19:40 43° SSW
Nadezhda 4 Rocket 3.9 20:15:59 10° N 20:22:18 88° E 20:28:29 10° S
GP-B 4.1 20:20:54 10° NNE 20:23:34 32° NE 20:23:34 32° NE
Cosmos 1092 Rocket 3.8 20:23:06 10° N 20:29:18 72° E 20:32:27 31° SSE
Cosmos 2142 Rocket 4.5 20:25:35 10° S 20:31:49 62° E 20:38:07 10° NNE
ISS -1.7 20:31:23 10° WSW 20:33:16 31° WSW 20:33:16 31° WSW
Cosmos 1674 3.3 20:33:34 10° N 20:36:37 53° NNW 20:36:37 53° NNW
OAO 3 Rocket 3.2 20:36:03 10° W 20:40:37 69° SSW 20:40:37 69° SSW
Cosmos 1634 Rocket 3.8 20:35:09 10° S 20:41:24 79° E 20:47:37 10° N
USA 215 4.2 20:35:32 10° NNE 20:41:40 45° NW 20:47:47 10° WSW
Cosmos 2026 Rocket 4.2 20:37:48 10° N 20:42:57 48° NE 20:42:57 48° NE
ASTRO E2 4.4 20:40:38 10° WSW 20:43:08 27° SW 20:43:08 27° SW
ALOS 3.1 20:42:33 23° SSW 20:45:13 49° W 20:49:45 10° NNW
ERS-1 Rocket 4.2 20:55:08 30° NNE 20:55:08 30° NNE 20:57:50 10° N
SeaSat 1 2.7 20:51:56 10° NNE 20:56:51 67° WNW 21:01:43 10° SW
ATLAS 5 CENTAUR R/B 4.4 20:54:11 10° W 20:57:37 19° NW 21:01:17 10° N
Atlas Centaur 2 4.3 20:57:39 10° WSW 21:04:01 24° SSW 21:06:05 22° S
Cosmos 2195 Rocket 4.4 20:59:11 10° N 21:05:32 89° E 21:05:32 89° E
Cosmos 839 Rocket 4.3 21:18:10 10° NNW 21:24:46 72° NW 21:24:46 72° NW
CENTAUR R/B 4.0 21:48:43 10° WSW 21:54:11 33° NW 22:00:15 10° NNE
Cosmos 2369 Rocket 4.0 21:53:01 10° NW 21:56:07 27° WNW 21:56:07 27° WNW
Cosmos 1943 Rocket 4.3 21:56:23 10° NNW 21:58:11 21° NNW 21:58:11 21° NNW
